Time,TemperatureF,DewpointF,PressureIn,WindDirection,WindDirectionDegrees,WindSpeedMPH,WindSpeedGustMPH,Humidity,HourlyPrecipIn,Conditions,Clouds,dailyrainin,SoftwareType,DateUTC
2013-08-10 00:01:00,87.0,64.3,29.85,SE,132,0.0,0.0,47,0.00,,,0.00,WeatherCatV1.15B25,2013-08-10 05:01:00,
2013-08-10 00:06:00,86.7,64.0,29.85,SE,132,0.0,0.0,47,0.00,,,0.00,WeatherCatV1.15B25,2013-08-10 05:06:00,
2013-08-10 00:11:00,86.5,64.4,29.85,SE,132,0.0,0.0,48,0.00,,,0.00,WeatherCatV1.15B25,2013-08-10 05:11:00,
2013-08-10 00:16:00,86.2,64.2,29.85,SE,132,0.0,0.0,48,0.00,,,0.00,WeatherCatV1.15B25,2013-08-10 05:16:00,
2013-08-10 00:21:00,85.9,64.5,29.85,SE,132,0.0,0.0,49,0.00,,,0.00,WeatherCatV1.15B25,2013-08-10 05:21:00,
2013-08-10 00:26:00,85.6,64.2,29.85,SE,132,0.0,0.0,49,0.00,,,0.00,WeatherCatV1.15B25,2013-08-10 05:26:00,
2013-08-10 00:31:00,85.3,64.5,29.85,SE,132,0.0,0.0,50,0.00,,,0.00,WeatherCatV1.15B25,2013-08-10 05:31:00,
2013-08-10 00:36:00,84.9,64.7,29.85,SE,132,0.0,0.0,51,0.00,,,0.00,WeatherCatV1.15B25,2013-08-10 05:36:00,
2013-08-10 00:41:00,84.6,64.4,29.85,SE,132,0.0,0.0,51,0.00,,,0.00,WeatherCatV1.15B25,2013-08-10 05:41:00,
2013-08-10 00:46:00,84.4,64.8,29.85,SE,132,0.0,0.0,52,0.00,,,0.00,WeatherCatV1.15B25,2013-08-10 05:46:00,
2013-08-10 00:51:00,84.1,65.1,29.85,SE,132,0.0,0.0,53,0.00,,,0.00,WeatherCatV1.15B25,2013-08-10 05:51:00,
2013-08-10 00:56:00,83.8,65.3,29.85,SE,132,0.0,0.0,54,0.00,,,0.00,WeatherCatV1.15B25,2013-08-10 05:56:00,
2013-08-10 01:01:00,83.6,65.7,29.86,SE,132,0.0,0.0,55,0.00,,,0.00,WeatherCatV1.15B25,2013-08-10 06:01:00,
2013-08-10 01:06:00,83.4,66.0,29.86,SE,132,0.0,0.0,56,0.00,,,0.00,WeatherCatV1.15B25,2013-08-10 06:06:00,
2013-08-10 01:11:00,83.2,65.8,29.86,SE,132,0.0,0.0,56,0.00,,,0.00,WeatherCatV1.15B25,2013-08-10 06:11:00,
2013-08-10 01:16:00,83.1,65.7,29.86,SE,132,0.0,0.0,56,0.00,,,0.00,WeatherCatV1.15B25,2013-08-10 06:16:00,
2013-08-10 01:21:00,83.0,65.7,29.86,SE,132,0.0,0.0,56,0.00,,,0.00,WeatherCatV1.15B25,2013-08-10 06:21:00,
2013-08-10 01:26:00,82.9,66.1,29.86,SE,132,0.0,0.0,57,0.00,,,0.00,WeatherCatV1.15B25,2013-08-10 06:26:00,
2013-08-10 01:31:00,82.8,65.5,29.87,SE,132,0.0,0.0,56,0.00,,,0.00,WeatherCatV1.15B25,2013-08-10 06:31:00,
2013-08-10 01:36:00,82.7,65.9,29.87,SE,132,0.0,0.0,57,0.00,,,0.00,WeatherCatV1.15B25,2013-08-10 06:36:00,
2013-08-10 01:41:00,82.6,65.8,29.87,SE,132,0.0,0.0,57,0.00,,,0.00,WeatherCatV1.15B25,2013-08-10 06:41:00,
2013-08-10 01:46:00,82.5,66.2,29.87,SE,132,0.0,0.0,58,0.00,,,0.00,WeatherCatV1.15B25,2013-08-10 06:46:00,
2013-08-10 01:51:00,82.3,66.0,29.87,SE,132,0.0,0.0,58,0.00,,,0.00,WeatherCatV1.15B25,2013-08-10 06:51:00,
2013-08-10 01:56:00,82.1,65.3,29.87,SE,132,0.0,0.0,57,0.00,,,0.00,WeatherCatV1.15B25,2013-08-10 06:56:00,
2013-08-10 02:01:00,82.0,65.2,29.87,SE,132,0.0,0.0,57,0.00,,,0.00,WeatherCatV1.15B25,2013-08-10 07:01:00,
2013-08-10 02:06:00,81.8,66.0,29.87,SE,132,0.0,0.0,59,0.00,,,0.00,WeatherCatV1.15B25,2013-08-10 07:06:00,
2013-08-10 02:11:00,81.7,65.9,29.87,SE,132,0.0,0.0,59,0.00,,,0.00,WeatherCatV1.15B25,2013-08-10 07:11:00,
2013-08-10 02:16:00,81.5,65.8,29.86,SE,132,0.0,0.0,59,0.00,,,0.00,WeatherCatV1.15B25,2013-08-10 07:16:00,
2013-08-10 02:21:00,81.4,66.2,29.86,SE,132,0.0,0.0,60,0.00,,,0.00,WeatherCatV1.15B25,2013-08-10 07:21:00,
2013-08-10 02:26:00,81.2,66.0,29.86,SE,132,0.0,0.0,60,0.00,,,0.00,WeatherCatV1.15B25,2013-08-10 07:26:00,
2013-08-10 02:31:00,81.1,66.4,29.87,NE,40,0.0,0.0,61,0.00,,,0.00,WeatherCatV1.15B25,2013-08-10 07:31:00,
2013-08-10 02:36:00,80.9,66.2,29.87,NE,40,0.0,0.0,61,0.00,,,0.00,WeatherCatV1.15B25,2013-08-10 07:36:00,
2013-08-10 02:41:00,80.8,66.1,29.87,NE,40,0.0,0.0,61,0.00,,,0.00,WeatherCatV1.15B25,2013-08-10 07:41:00,
2013-08-10 02:46:00,80.7,66.4,29.87,NE,40,0.0,0.0,62,0.00,,,0.00,WeatherCatV1.15B25,2013-08-10 07:46:00,
2013-08-10 02:51:00,80.6,66.8,29.87,NE,40,0.0,0.0,63,0.00,,,0.00,WeatherCatV1.15B25,2013-08-10 07:51:00,
2013-08-10 02:56:00,80.5,67.2,29.87,NE,40,0.0,0.0,64,0.00,,,0.00,WeatherCatV1.15B25,2013-08-10 07:56:00,
2013-08-10 03:01:00,80.4,67.5,29.87,NE,40,0.0,0.0,65,0.00,,,0.00,WeatherCatV1.15B25,2013-08-10 08:01:00,
2013-08-10 03:06:00,80.3,68.3,29.87,NE,55,0.0,0.0,67,0.00,,,0.00,WeatherCatV1.15B25,2013-08-10 08:06:00,
2013-08-10 03:11:00,80.1,68.6,29.87,NE,55,0.0,0.0,68,0.00,,,0.00,WeatherCatV1.15B25,2013-08-10 08:11:00,
2013-08-10 03:16:00,80.1,69.0,29.87,NE,55,0.0,0.0,69,0.00,,,0.00,WeatherCatV1.15B25,2013-08-10 08:16:00,
2013-08-10 03:21:00,80.0,68.9,29.87,NE,55,0.0,0.0,69,0.00,,,0.00,WeatherCatV1.15B25,2013-08-10 08:21:00,
2013-08-10 03:26:00,79.9,69.2,29.87,NE,55,0.0,0.0,70,0.00,,,0.00,WeatherCatV1.15B25,2013-08-10 08:26:00,
2013-08-10 03:31:00,79.8,69.1,29.87,NE,55,0.0,0.0,70,0.00,,,0.00,WeatherCatV1.15B25,2013-08-10 08:31:00,
2013-08-10 03:36:00,79.7,69.0,29.87,NE,55,0.0,0.0,70,0.00,,,0.00,WeatherCatV1.15B25,2013-08-10 08:36:00,
2013-08-10 03:41:00,79.6,69.3,29.87,NE,55,0.0,0.0,71,0.00,,,0.00,WeatherCatV1.15B25,2013-08-10 08:41:00,
2013-08-10 03:46:00,79.5,69.2,29.87,NE,55,0.0,0.0,71,0.00,,,0.00,WeatherCatV1.15B25,2013-08-10 08:46:00,
2013-08-10 03:51:00,79.4,69.6,29.87,NE,55,0.0,0.0,72,0.00,,,0.00,WeatherCatV1.15B25,2013-08-10 08:51:00,
2013-08-10 03:56:00,79.2,69.8,29.87,NE,55,0.0,0.0,73,0.00,,,0.00,WeatherCatV1.15B25,2013-08-10 08:56:00,
2013-08-10 04:01:00,79.0,69.6,29.88,NE,55,0.0,0.0,73,0.00,,,0.00,WeatherCatV1.15B25,2013-08-10 09:01:00,
2013-08-10 04:06:00,78.9,69.9,29.88,NE,55,0.0,0.0,74,0.00,,,0.00,WeatherCatV1.15B25,2013-08-10 09:06:00,
2013-08-10 04:11:00,78.7,70.1,29.88,NE,55,0.0,0.0,75,0.00,,,0.00,WeatherCatV1.15B25,2013-08-10 09:11:00,
2013-08-10 04:16:00,78.6,70.0,29.88,NE,55,0.0,0.0,75,0.00,,,0.00,WeatherCatV1.15B25,2013-08-10 09:16:00,
2013-08-10 04:21:00,78.5,70.3,29.88,ENE,57,0.0,0.0,76,0.00,,,0.00,WeatherCatV1.15B25,2013-08-10 09:21:00,
2013-08-10 04:26:00,78.4,70.6,29.88,ENE,57,0.0,0.0,77,0.00,,,0.00,WeatherCatV1.15B25,2013-08-10 09:26:00,
2013-08-10 04:31:00,78.3,70.5,29.88,ENE,57,0.0,0.0,77,0.00,,,0.00,WeatherCatV1.15B25,2013-08-10 09:31:00,
2013-08-10 04:36:00,78.3,70.9,29.88,ENE,57,0.0,0.0,78,0.00,,,0.00,WeatherCatV1.15B25,2013-08-10 09:36:00,
2013-08-10 04:41:00,78.2,71.1,29.88,ENE,57,0.0,0.0,79,0.00,,,0.00,WeatherCatV1.15B25,2013-08-10 09:41:00,
2013-08-10 04:46:00,78.2,71.5,29.88,NE,41,0.0,0.0,80,0.00,,,0.00,WeatherCatV1.15B25,2013-08-10 09:46:00,
2013-08-10 04:51:00,78.1,71.4,29.88,NNW,338,0.0,0.0,80,0.00,,,0.00,WeatherCatV1.15B25,2013-08-10 09:51:00,
2013-08-10 04:56:00,78.1,71.8,29.88,NNW,338,0.0,0.0,81,0.00,,,0.00,WeatherCatV1.15B25,2013-08-10 09:56:00,
2013-08-10 05:01:00,78.1,71.8,29.87,NNW,338,0.0,0.0,81,0.00,,,0.00,WeatherCatV1.15B25,2013-08-10 10:01:00,
2013-08-10 05:06:00,78.0,72.0,29.87,NNW,338,0.0,0.0,82,0.00,,,0.00,WeatherCatV1.15B25,2013-08-10 10:06:00,
2013-08-10 05:11:00,77.9,71.9,29.87,NNW,338,0.0,0.0,82,0.00,,,0.00,WeatherCatV1.15B25,2013-08-10 10:11:00,
2013-08-10 05:16:00,77.9,71.9,29.87,NNW,338,0.0,0.0,82,0.00,,,0.00,WeatherCatV1.15B25,2013-08-10 10:16:00,
2013-08-10 05:21:00,77.8,72.2,29.87,NNW,338,0.0,0.0,83,0.00,,,0.00,WeatherCatV1.15B25,2013-08-10 10:21:00,
2013-08-10 05:26:00,77.7,72.1,29.87,NNW,338,0.0,0.0,83,0.00,,,0.00,WeatherCatV1.15B25,2013-08-10 10:26:00,
2013-08-10 05:31:00,77.6,72.0,29.88,NNW,338,0.0,0.0,83,0.00,,,0.00,WeatherCatV1.15B25,2013-08-10 10:31:00,
2013-08-10 05:36:00,77.5,71.9,29.88,NNW,338,0.0,0.0,83,0.00,,,0.00,WeatherCatV1.15B25,2013-08-10 10:36:00,
2013-08-10 05:41:00,77.4,71.8,29.88,NNW,338,0.0,0.0,83,0.00,,,0.00,WeatherCatV1.15B25,2013-08-10 10:41:00,
2013-08-10 05:46:00,77.3,71.7,29.88,NNW,338,0.0,0.0,83,0.00,,,0.00,WeatherCatV1.15B25,2013-08-10 10:46:00,
2013-08-10 05:51:00,77.2,72.0,29.88,NNW,338,0.0,0.0,84,0.00,,,0.00,WeatherCatV1.15B25,2013-08-10 10:51:00,
2013-08-10 05:56:00,77.1,71.5,29.88,NNW,338,0.0,0.0,83,0.00,,,0.00,WeatherCatV1.15B25,2013-08-10 10:56:00,
2013-08-10 06:01:00,77.0,71.8,29.89,NNW,338,0.0,0.0,84,0.00,,,0.00,WeatherCatV1.15B25,2013-08-10 11:01:00,
2013-08-10 06:06:00,76.9,71.7,29.89,NNW,338,0.0,0.0,84,0.00,,,0.00,WeatherCatV1.15B25,2013-08-10 11:06:00,
2013-08-10 06:11:00,76.8,71.6,29.89,NNW,338,0.0,0.0,84,0.00,,,0.00,WeatherCatV1.15B25,2013-08-10 11:11:00,
2013-08-10 06:16:00,76.7,71.5,29.89,NNW,338,0.0,0.0,84,0.00,,,0.00,WeatherCatV1.15B25,2013-08-10 11:16:00,
2013-08-10 06:21:00,76.5,71.6,29.89,NNW,338,0.0,0.0,85,0.00,,,0.00,WeatherCatV1.15B25,2013-08-10 11:21:00,
2013-08-10 06:26:00,76.4,71.5,29.89,NNW,338,0.0,0.0,85,0.00,,,0.00,WeatherCatV1.15B25,2013-08-10 11:26:00,
2013-08-10 06:31:00,76.3,71.4,29.89,NNW,338,0.0,0.0,85,0.00,,,0.00,WeatherCatV1.15B25,2013-08-10 11:31:00,
2013-08-10 06:36:00,76.2,71.3,29.89,NNW,338,0.0,0.0,85,0.00,,,0.00,WeatherCatV1.15B25,2013-08-10 11:36:00,
2013-08-10 06:41:00,76.1,71.2,29.89,NNW,338,0.0,0.0,85,0.00,,,0.00,WeatherCatV1.15B25,2013-08-10 11:41:00,
2013-08-10 06:46:00,76.0,71.2,29.90,NNW,338,0.0,0.0,85,0.00,,,0.00,WeatherCatV1.15B25,2013-08-10 11:46:00,
2013-08-10 06:51:00,75.9,71.4,29.90,NNW,338,0.0,0.0,86,0.00,,,0.00,WeatherCatV1.15B25,2013-08-10 11:51:00,
2013-08-10 06:56:00,75.8,71.3,29.90,NNW,338,0.0,0.0,86,0.00,,,0.00,WeatherCatV1.15B25,2013-08-10 11:56:00,
2013-08-10 07:01:00,75.8,71.6,29.90,NNW,338,0.0,0.0,87,0.00,,,0.00,WeatherCatV1.15B25,2013-08-10 12:01:00,
2013-08-10 07:06:00,75.8,71.6,29.90,NE,42,0.0,0.0,87,0.00,,,0.00,WeatherCatV1.15B25,2013-08-10 12:06:00,
2013-08-10 07:11:00,75.8,72.0,29.90,NE,42,0.0,0.0,88,0.00,,,0.00,WeatherCatV1.15B25,2013-08-10 12:11:00,
2013-08-10 07:16:00,75.9,72.1,29.90,NE,42,0.0,0.0,88,0.00,,,0.00,WeatherCatV1.15B25,2013-08-10 12:16:00,
2013-08-10 07:21:00,75.9,72.1,29.90,NE,42,0.0,0.0,88,0.00,,,0.00,WeatherCatV1.15B25,2013-08-10 12:21:00,
2013-08-10 07:26:00,76.0,72.5,29.90,NE,42,0.0,0.0,89,0.00,,,0.00,WeatherCatV1.15B25,2013-08-10 12:26:00,
2013-08-10 07:31:00,76.2,72.7,29.90,NE,43,0.0,4.0,89,0.00,,,0.00,WeatherCatV1.15B25,2013-08-10 12:31:00,
2013-08-10 07:36:00,76.3,73.1,29.90,NE,39,0.0,3.0,90,0.00,,,0.00,WeatherCatV1.15B25,2013-08-10 12:36:00,
2013-08-10 07:41:00,76.5,73.3,29.90,NE,37,1.0,3.0,90,0.00,,,0.00,WeatherCatV1.15B25,2013-08-10 12:41:00,
2013-08-10 07:46:00,76.7,73.5,29.91,NE,56,1.0,4.0,90,0.00,,,0.00,WeatherCatV1.15B25,2013-08-10 12:46:00,
2013-08-10 07:51:00,77.0,73.8,29.91,NNE,14,3.0,6.0,90,0.00,,,0.00,WeatherCatV1.15B25,2013-08-10 12:51:00,
2013-08-10 07:56:00,77.3,73.8,29.91,NE,36,0.0,3.0,89,0.00,,,0.00,WeatherCatV1.15B25,2013-08-10 12:56:00,
2013-08-10 08:01:00,77.5,74.0,29.91,NNE,17,3.0,5.0,89,0.00,,,0.00,WeatherCatV1.15B25,2013-08-10 13:01:00,
2013-08-10 08:06:00,77.7,74.2,29.91,NNE,28,0.0,1.0,89,0.00,,,0.00,WeatherCatV1.15B25,2013-08-10 13:06:00,
2013-08-10 08:11:00,77.9,74.0,29.91,North,9,0.0,0.0,88,0.00,,,0.00,WeatherCatV1.15B25,2013-08-10 13:11:00,
2013-08-10 08:16:00,78.0,74.1,29.92,NNE,20,0.0,0.0,88,0.00,,,0.00,WeatherCatV1.15B25,2013-08-10 13:16:00,
2013-08-10 08:21:00,78.3,74.4,29.92,North,11,0.0,1.0,88,0.00,,,0.00,WeatherCatV1.15B25,2013-08-10 13:21:00,
2013-08-10 08:26:00,78.5,74.3,29.92,NE,38,0.0,4.0,87,0.00,,,0.00,WeatherCatV1.15B25,2013-08-10 13:26:00,
2013-08-10 08:31:00,78.8,74.6,29.92,NE,56,0.0,1.0,87,0.00,,,0.00,WeatherCatV1.15B25,2013-08-10 13:31:00,
2013-08-10 08:36:00,79.1,74.5,29.92,NNE,16,0.0,8.0,86,0.00,,,0.00,WeatherCatV1.15B25,2013-08-10 13:36:00,
2013-08-10 08:41:00,79.4,74.5,29.92,NE,36,4.0,7.0,85,0.00,,,0.00,WeatherCatV1.15B25,2013-08-10 13:41:00,
2013-08-10 08:46:00,79.8,74.9,29.93,NNE,22,0.0,8.0,85,0.00,,,0.00,WeatherCatV1.15B25,2013-08-10 13:46:00,
2013-08-10 08:51:00,80.1,75.2,29.93,NNE,24,5.0,7.0,85,0.00,,,0.00,WeatherCatV1.15B25,2013-08-10 13:51:00,
2013-08-10 08:56:00,80.5,75.2,29.93,NE,45,3.0,6.0,84,0.00,,,0.00,WeatherCatV1.15B25,2013-08-10 13:56:00,
2013-08-10 09:01:00,80.8,75.5,29.93,North,0,0.0,7.0,84,0.00,,,0.00,WeatherCatV1.15B25,2013-08-10 14:01:00,
2013-08-10 09:06:00,81.2,75.9,29.93,ENE,62,6.0,6.0,84,0.00,,,0.00,WeatherCatV1.15B25,2013-08-10 14:06:00,
2013-08-10 09:11:00,81.7,76.0,29.93,North,5,3.0,10.0,83,0.00,,,0.00,WeatherCatV1.15B25,2013-08-10 14:11:00,
2013-08-10 09:16:00,82.0,76.3,29.94,NNW,342,9.0,12.0,83,0.00,,,0.00,WeatherCatV1.15B25,2013-08-10 14:16:00,
2013-08-10 09:21:00,82.3,76.6,29.94,ENE,69,4.0,7.0,83,0.00,,,0.00,WeatherCatV1.15B25,2013-08-10 14:21:00,
2013-08-10 09:26:00,82.6,76.5,29.94,NNE,27,4.0,7.0,82,0.00,,,0.00,WeatherCatV1.15B25,2013-08-10 14:26:00,
2013-08-10 09:31:00,83.0,76.5,29.94,NNW,338,2.0,5.0,81,0.00,,,0.00,WeatherCatV1.15B25,2013-08-10 14:31:00,
2013-08-10 09:36:00,83.4,76.6,29.94,WNW,299,2.0,10.0,80,0.00,,,0.00,WeatherCatV1.15B25,2013-08-10 14:36:00,
2013-08-10 09:41:00,83.7,76.5,29.94,NNE,13,2.0,11.0,79,0.00,,,0.00,WeatherCatV1.15B25,2013-08-10 14:41:00,
2013-08-10 09:46:00,84.0,76.4,29.94,North,355,1.0,9.0,78,0.00,,,0.00,WeatherCatV1.15B25,2013-08-10 14:46:00,
2013-08-10 09:51:00,84.2,76.6,29.94,North,9,8.0,10.0,78,0.00,,,0.00,WeatherCatV1.15B25,2013-08-10 14:51:00,
2013-08-10 09:56:00,84.5,76.5,29.94,NE,41,3.0,7.0,77,0.00,,,0.00,WeatherCatV1.15B25,2013-08-10 14:56:00,
2013-08-10 10:01:00,85.0,77.0,29.94,NNW,342,0.0,9.0,77,0.00,,,0.00,WeatherCatV1.15B25,2013-08-10 15:01:00,
2013-08-10 10:06:00,85.5,77.0,29.94,North,350,0.0,3.0,76,0.00,,,0.00,WeatherCatV1.15B25,2013-08-10 15:06:00,
2013-08-10 10:11:00,86.3,77.4,29.94,NW,317,9.0,9.0,75,0.00,,,0.00,WeatherCatV1.15B25,2013-08-10 15:11:00,
2013-08-10 10:16:00,86.8,77.1,29.94,NNE,13,4.0,9.0,73,0.00,,,0.00,WeatherCatV1.15B25,2013-08-10 15:16:00,
2013-08-10 10:21:00,87.3,77.6,29.94,ENE,63,7.0,9.0,73,0.00,,,0.00,WeatherCatV1.15B25,2013-08-10 15:21:00,
2013-08-10 10:26:00,87.9,77.3,29.94,North,355,5.0,9.0,71,0.00,,,0.00,WeatherCatV1.15B25,2013-08-10 15:26:00,
2013-08-10 10:31:00,88.5,77.9,29.94,NNE,22,5.0,9.0,71,0.00,,,0.00,WeatherCatV1.15B25,2013-08-10 15:31:00,
2013-08-10 10:36:00,89.0,77.5,29.94,North,10,0.0,8.0,69,0.00,,,0.00,WeatherCatV1.15B25,2013-08-10 15:36:00,
2013-08-10 10:41:00,89.6,78.0,29.94,North,5,0.0,0.0,69,0.00,,,0.00,WeatherCatV1.15B25,2013-08-10 15:41:00,
2013-08-10 10:46:00,90.4,78.4,29.94,NE,39,1.0,4.0,68,0.00,,,0.00,WeatherCatV1.15B25,2013-08-10 15:46:00,
2013-08-10 10:51:00,90.8,78.3,29.94,NW,319,0.0,7.0,67,0.00,,,0.00,WeatherCatV1.15B25,2013-08-10 15:51:00,
2013-08-10 10:56:00,91.4,77.9,29.94,NNE,15,5.0,6.0,65,0.00,,,0.00,WeatherCatV1.15B25,2013-08-10 15:56:00,
2013-08-10 11:01:00,91.6,77.7,29.94,North,0,6.0,10.0,64,0.00,,,0.00,WeatherCatV1.15B25,2013-08-10 16:01:00,
2013-08-10 11:06:00,91.9,77.9,29.94,NE,34,0.0,5.0,64,0.00,,,0.00,WeatherCatV1.15B25,2013-08-10 16:06:00,
2013-08-10 11:11:00,92.2,77.7,29.94,North,5,0.0,5.0,63,0.00,,,0.00,WeatherCatV1.15B25,2013-08-10 16:11:00,
2013-08-10 11:16:00,92.6,78.1,29.95,NNW,334,0.0,7.0,63,0.00,,,0.00,WeatherCatV1.15B25,2013-08-10 16:16:00,
2013-08-10 11:21:00,92.9,77.9,29.95,North,0,2.0,9.0,62,0.00,,,0.00,WeatherCatV1.15B25,2013-08-10 16:21:00,
2013-08-10 11:26:00,93.3,77.8,29.95,East,84,0.0,6.0,61,0.00,,,0.00,WeatherCatV1.15B25,2013-08-10 16:26:00,
2013-08-10 11:31:00,93.6,77.6,29.95,NE,42,3.0,9.0,60,0.00,,,0.00,WeatherCatV1.15B25,2013-08-10 16:31:00,
2013-08-10 11:36:00,93.7,77.2,29.95,NW,314,0.0,1.0,59,0.00,,,0.00,WeatherCatV1.15B25,2013-08-10 16:36:00,
2013-08-10 11:41:00,94.0,77.4,29.95,NNE,13,0.0,1.0,59,0.00,,,0.00,WeatherCatV1.15B25,2013-08-10 16:41:00,
2013-08-10 11:46:00,94.3,77.2,29.95,NW,317,0.0,4.0,58,0.00,,,0.00,WeatherCatV1.15B25,2013-08-10 16:46:00,
2013-08-10 11:51:00,94.6,77.0,29.95,NW,321,0.0,5.0,57,0.00,,,0.00,WeatherCatV1.15B25,2013-08-10 16:51:00,
2013-08-10 11:56:00,94.7,77.0,29.95,NNW,340,0.0,6.0,57,0.00,,,0.00,WeatherCatV1.15B25,2013-08-10 16:56:00,
2013-08-10 12:01:00,94.6,76.4,29.95,NNE,28,2.0,4.0,56,0.00,,,0.00,WeatherCatV1.15B25,2013-08-10 17:01:00,
2013-08-10 12:06:00,94.9,77.2,29.95,North,0,0.0,5.0,57,0.00,,,0.00,WeatherCatV1.15B25,2013-08-10 17:06:00,
2013-08-10 12:11:00,95.4,76.6,29.95,NW,309,0.0,1.0,55,0.00,,,0.00,WeatherCatV1.15B25,2013-08-10 17:11:00,
2013-08-10 12:16:00,95.6,76.2,29.95,NNW,341,0.0,3.0,54,0.00,,,0.00,WeatherCatV1.15B25,2013-08-10 17:16:00,
2013-08-10 12:21:00,96.0,76.1,29.95,North,0,0.0,7.0,53,0.00,,,0.00,WeatherCatV1.15B25,2013-08-10 17:21:00,
2013-08-10 12:26:00,96.4,76.4,29.95,NNW,329,0.0,1.0,53,0.00,,,0.00,WeatherCatV1.15B25,2013-08-10 17:26:00,
2013-08-10 12:31:00,96.6,75.4,29.95,West,265,0.0,6.0,51,0.00,,,0.00,WeatherCatV1.15B25,2013-08-10 17:31:00,
2013-08-10 12:36:00,96.6,76.0,29.95,NNW,340,1.0,1.0,52,0.00,,,0.00,WeatherCatV1.15B25,2013-08-10 17:36:00,
2013-08-10 12:41:00,96.5,75.9,29.95,NNW,334,3.0,4.0,52,0.00,,,0.00,WeatherCatV1.15B25,2013-08-10 17:41:00,
2013-08-10 12:46:00,96.5,75.9,29.95,West,267,1.0,5.0,52,0.00,,,0.00,WeatherCatV1.15B25,2013-08-10 17:46:00,
2013-08-10 12:51:00,96.6,76.0,29.95,NNE,19,0.0,0.0,52,0.00,,,0.00,WeatherCatV1.15B25,2013-08-10 17:51:00,
2013-08-10 12:56:00,97.0,76.4,29.95,NW,325,5.0,6.0,52,0.00,,,0.00,WeatherCatV1.15B25,2013-08-10 17:56:00,
2013-08-10 13:01:00,97.4,76.2,29.94,NNW,331,3.0,4.0,51,0.00,,,0.00,WeatherCatV1.15B25,2013-08-10 18:01:00,
2013-08-10 13:06:00,97.3,75.5,29.94,NE,49,1.0,5.0,50,0.00,,,0.00,WeatherCatV1.15B25,2013-08-10 18:06:00,
2013-08-10 13:11:00,97.4,75.6,29.94,NW,317,5.0,6.0,50,0.00,,,0.00,WeatherCatV1.15B25,2013-08-10 18:11:00,
2013-08-10 13:16:00,97.7,75.2,29.94,NW,314,3.0,6.0,49,0.00,,,0.00,WeatherCatV1.15B25,2013-08-10 18:16:00,
2013-08-10 13:21:00,97.7,75.9,29.94,NNW,346,1.0,6.0,50,0.00,,,0.00,WeatherCatV1.15B25,2013-08-10 18:21:00,
2013-08-10 13:26:00,98.0,76.1,29.94,NNE,18,3.0,5.0,50,0.00,,,0.00,WeatherCatV1.15B25,2013-08-10 18:26:00,
2013-08-10 13:31:00,98.3,76.4,29.94,NNE,30,0.0,10.0,50,0.00,,,0.00,WeatherCatV1.15B25,2013-08-10 18:31:00,
2013-08-10 13:36:00,98.8,77.5,29.94,North,355,3.0,7.0,51,0.00,,,0.00,WeatherCatV1.15B25,2013-08-10 18:36:00,
2013-08-10 13:41:00,99.2,77.2,29.94,NNW,347,0.0,10.0,50,0.00,,,0.00,WeatherCatV1.15B25,2013-08-10 18:41:00,
2013-08-10 13:46:00,99.4,74.9,29.93,NNE,29,0.0,6.0,46,0.00,,,0.00,WeatherCatV1.15B25,2013-08-10 18:46:00,
2013-08-10 13:51:00,99.8,75.9,29.93,North,5,6.0,7.0,47,0.00,,,0.00,WeatherCatV1.15B25,2013-08-10 18:51:00,
2013-08-10 13:56:00,100.1,76.2,29.93,NNE,24,6.0,9.0,47,0.00,,,0.00,WeatherCatV1.15B25,2013-08-10 18:56:00,
2013-08-10 14:01:00,100.3,77.0,29.93,NE,43,0.0,6.0,48,0.00,,,0.00,WeatherCatV1.15B25,2013-08-10 19:01:00,
2013-08-10 14:06:00,100.6,76.6,29.93,NNE,32,0.0,6.0,47,0.00,,,0.00,WeatherCatV1.15B25,2013-08-10 19:06:00,
2013-08-10 14:11:00,101.0,77.0,29.93,NNE,22,5.0,7.0,47,0.00,,,0.00,WeatherCatV1.15B25,2013-08-10 19:11:00,
2013-08-10 14:16:00,101.2,76.5,29.92,NW,305,3.0,5.0,46,0.00,,,0.00,WeatherCatV1.15B25,2013-08-10 19:16:00,
2013-08-10 14:21:00,101.4,76.7,29.92,NW,325,3.0,7.0,46,0.00,,,0.00,WeatherCatV1.15B25,2013-08-10 19:21:00,
2013-08-10 14:26:00,101.4,76.0,29.92,NNW,340,2.0,5.0,45,0.00,,,0.00,WeatherCatV1.15B25,2013-08-10 19:26:00,
2013-08-10 14:31:00,101.5,75.5,29.92,NNW,339,0.0,2.0,44,0.00,,,0.00,WeatherCatV1.15B25,2013-08-10 19:31:00,
2013-08-10 14:36:00,101.7,77.0,29.92,NNW,345,1.0,3.0,46,0.00,,,0.00,WeatherCatV1.15B25,2013-08-10 19:36:00,
2013-08-10 14:41:00,101.8,75.7,29.92,NNW,346,3.0,5.0,44,0.00,,,0.00,WeatherCatV1.15B25,2013-08-10 19:41:00,
2013-08-10 14:46:00,102.0,75.9,29.91,NNE,17,1.0,6.0,44,0.00,,,0.00,WeatherCatV1.15B25,2013-08-10 19:46:00,
2013-08-10 14:51:00,102.3,76.2,29.91,NE,40,0.0,5.0,44,0.00,,,0.00,WeatherCatV1.15B25,2013-08-10 19:51:00,
2013-08-10 14:56:00,102.5,75.7,29.91,NE,36,2.0,9.0,43,0.00,,,0.00,WeatherCatV1.15B25,2013-08-10 19:56:00,
2013-08-10 15:01:00,102.8,76.6,29.90,North,355,4.0,9.0,44,0.00,,,0.00,WeatherCatV1.15B25,2013-08-10 20:01:00,
2013-08-10 15:06:00,103.0,76.1,29.90,North,0,0.0,7.0,43,0.00,,,0.00,WeatherCatV1.15B25,2013-08-10 20:06:00,
2013-08-10 15:11:00,103.2,76.3,29.90,NNE,26,0.0,4.0,43,0.00,,,0.00,WeatherCatV1.15B25,2013-08-10 20:11:00,
2013-08-10 15:16:00,103.2,75.6,29.90,NNW,329,1.0,5.0,42,0.00,,,0.00,WeatherCatV1.15B25,2013-08-10 20:16:00,
2013-08-10 15:21:00,102.9,75.3,29.90,WNW,300,0.0,1.0,42,0.00,,,0.00,WeatherCatV1.15B25,2013-08-10 20:21:00,
2013-08-10 15:26:00,102.9,76.0,29.90,NW,317,1.0,5.0,43,0.00,,,0.00,WeatherCatV1.15B25,2013-08-10 20:26:00,
2013-08-10 15:31:00,102.9,76.0,29.89,North,0,0.0,0.0,43,0.00,,,0.00,WeatherCatV1.15B25,2013-08-10 20:31:00,
2013-08-10 15:36:00,103.2,75.6,29.89,North,11,0.0,2.0,42,0.00,,,0.00,WeatherCatV1.15B25,2013-08-10 20:36:00,
2013-08-10 15:41:00,103.2,75.6,29.89,NE,43,5.0,5.0,42,0.00,,,0.00,WeatherCatV1.15B25,2013-08-10 20:41:00,
2013-08-10 15:46:00,103.2,74.9,29.88,North,0,0.0,3.0,41,0.00,,,0.00,WeatherCatV1.15B25,2013-08-10 20:46:00,
2013-08-10 15:51:00,103.3,75.7,29.88,NE,38,3.0,7.0,42,0.00,,,0.00,WeatherCatV1.15B25,2013-08-10 20:51:00,
2013-08-10 15:56:00,103.1,74.8,29.88,NNE,33,0.0,5.0,41,0.00,,,0.00,WeatherCatV1.15B25,2013-08-10 20:56:00,
2013-08-10 16:01:00,103.0,74.7,29.88,North,11,1.0,5.0,41,0.00,,,0.00,WeatherCatV1.15B25,2013-08-10 21:01:00,
2013-08-10 16:06:00,103.4,75.8,29.88,NE,34,0.0,2.0,42,0.00,,,0.00,WeatherCatV1.15B25,2013-08-10 21:06:00,
2013-08-10 16:11:00,103.8,76.1,29.88,NW,309,3.0,3.0,42,0.00,,,0.00,WeatherCatV1.15B25,2013-08-10 21:11:00,
2013-08-10 16:16:00,104.0,75.6,29.87,North,9,0.0,4.0,41,0.00,,,0.00,WeatherCatV1.15B25,2013-08-10 21:16:00,
2013-08-10 16:21:00,104.1,74.2,29.87,WNW,294,0.0,1.0,39,0.00,,,0.00,WeatherCatV1.15B25,2013-08-10 21:21:00,
2013-08-10 16:26:00,104.2,75.0,29.87,East,86,6.0,6.0,40,0.00,,,0.00,WeatherCatV1.15B25,2013-08-10 21:26:00,
2013-08-10 16:31:00,104.1,74.2,29.87,NE,46,7.0,9.0,39,0.00,,,0.00,WeatherCatV1.15B25,2013-08-10 21:31:00,
2013-08-10 16:36:00,103.8,74.6,29.87,NE,43,11.0,12.0,40,0.00,,,0.00,WeatherCatV1.15B25,2013-08-10 21:36:00,
2013-08-10 16:41:00,103.7,74.6,29.87,NE,38,0.0,5.0,40,0.00,,,0.00,WeatherCatV1.15B25,2013-08-10 21:41:00,
2013-08-10 16:46:00,103.4,74.3,29.86,North,9,7.0,7.0,40,0.00,,,0.00,WeatherCatV1.15B25,2013-08-10 21:46:00,
2013-08-10 16:51:00,103.3,73.4,29.86,NNE,28,0.0,9.0,39,0.00,,,0.00,WeatherCatV1.15B25,2013-08-10 21:51:00,
2013-08-10 16:56:00,103.3,73.4,29.86,North,5,6.0,7.0,39,0.00,,,0.00,WeatherCatV1.15B25,2013-08-10 21:56:00,
2013-08-10 17:01:00,103.3,74.2,29.86,North,5,0.0,6.0,40,0.00,,,0.00,WeatherCatV1.15B25,2013-08-10 22:01:00,
2013-08-10 17:06:00,103.3,73.4,29.86,NE,49,2.0,7.0,39,0.00,,,0.00,WeatherCatV1.15B25,2013-08-10 22:06:00,
2013-08-10 17:11:00,103.4,73.5,29.86,NE,38,0.0,5.0,39,0.00,,,0.00,WeatherCatV1.15B25,2013-08-10 22:11:00,
2013-08-10 17:16:00,103.4,73.5,29.87,NNE,24,2.0,4.0,39,0.00,,,0.00,WeatherCatV1.15B25,2013-08-10 22:16:00,
2013-08-10 17:21:00,103.3,73.4,29.87,NE,34,0.0,5.0,39,0.00,,,0.00,WeatherCatV1.15B25,2013-08-10 22:21:00,
2013-08-10 17:26:00,103.1,73.3,29.87,NNE,24,0.0,7.0,39,0.00,,,0.00,WeatherCatV1.15B25,2013-08-10 22:26:00,
2013-08-10 17:31:00,103.0,73.2,29.86,NE,38,0.0,0.0,39,0.00,,,0.00,WeatherCatV1.15B25,2013-08-10 22:31:00,
2013-08-10 17:36:00,102.7,73.7,29.86,North,9,0.0,1.0,40,0.00,,,0.00,WeatherCatV1.15B25,2013-08-10 22:36:00,
2013-08-10 17:41:00,102.5,73.5,29.86,NNE,17,4.0,9.0,40,0.00,,,0.00,WeatherCatV1.15B25,2013-08-10 22:41:00,
2013-08-10 17:46:00,102.3,73.3,29.85,NNE,19,4.0,4.0,40,0.00,,,0.00,WeatherCatV1.15B25,2013-08-10 22:46:00,
2013-08-10 17:51:00,101.9,72.2,29.85,NNE,24,3.0,6.0,39,0.00,,,0.00,WeatherCatV1.15B25,2013-08-10 22:51:00,
2013-08-10 17:56:00,101.5,72.6,29.85,NE,42,4.0,7.0,40,0.00,,,0.00,WeatherCatV1.15B25,2013-08-10 22:56:00,
2013-08-10 18:01:00,101.2,71.6,29.85,North,9,1.0,2.0,39,0.00,,,0.00,WeatherCatV1.15B25,2013-08-10 23:01:00,
2013-08-10 18:06:00,100.9,72.1,29.85,NNE,22,0.0,6.0,40,0.00,,,0.00,WeatherCatV1.15B25,2013-08-10 23:06:00,
2013-08-10 18:11:00,100.6,71.8,29.85,NE,34,1.0,4.0,40,0.00,,,0.00,WeatherCatV1.15B25,2013-08-10 23:11:00,
2013-08-10 18:16:00,100.3,71.5,29.85,NNE,18,0.0,3.0,40,0.00,,,0.00,WeatherCatV1.15B25,2013-08-10 23:16:00,
2013-08-10 18:21:00,100.0,72.0,29.85,North,9,0.0,7.0,41,0.00,,,0.00,WeatherCatV1.15B25,2013-08-10 23:21:00,
2013-08-10 18:26:00,99.8,71.8,29.85,NE,38,0.0,4.0,41,0.00,,,0.00,WeatherCatV1.15B25,2013-08-10 23:26:00,
2013-08-10 18:31:00,99.6,71.6,29.84,North,5,0.0,3.0,41,0.00,,,0.00,WeatherCatV1.15B25,2013-08-10 23:31:00,
2013-08-10 18:36:00,99.3,71.4,29.84,NE,34,3.0,3.0,41,0.00,,,0.00,WeatherCatV1.15B25,2013-08-10 23:36:00,
2013-08-10 18:41:00,98.9,71.7,29.84,North,11,0.0,0.0,42,0.00,,,0.00,WeatherCatV1.15B25,2013-08-10 23:41:00,
2013-08-10 18:46:00,98.7,70.8,29.84,North,9,1.0,5.0,41,0.00,,,0.00,WeatherCatV1.15B25,2013-08-10 23:46:00,
2013-08-10 18:51:00,98.4,70.6,29.84,NNE,12,0.0,4.0,41,0.00,,,0.00,WeatherCatV1.15B25,2013-08-10 23:51:00,
2013-08-10 18:56:00,98.1,71.7,29.84,NNW,344,0.0,3.0,43,0.00,,,0.00,WeatherCatV1.15B25,2013-08-10 23:56:00,
2013-08-10 19:01:00,97.9,70.8,29.85,NE,44,1.0,3.0,42,0.00,,,0.00,WeatherCatV1.15B25,2013-08-11 00:01:00,
2013-08-10 19:06:00,97.6,70.6,29.85,NNE,15,2.0,3.0,42,0.00,,,0.00,WeatherCatV1.15B25,2013-08-11 00:06:00,
2013-08-10 19:11:00,97.3,70.3,29.85,NE,41,0.0,7.0,42,0.00,,,0.00,WeatherCatV1.15B25,2013-08-11 00:11:00,
2013-08-10 19:16:00,97.0,70.7,29.85,NNE,26,0.0,3.0,43,0.00,,,0.00,WeatherCatV1.15B25,2013-08-11 00:16:00,
2013-08-10 19:21:00,96.8,70.6,29.85,NE,36,1.0,3.0,43,0.00,,,0.00,WeatherCatV1.15B25,2013-08-11 00:21:00,
2013-08-10 19:26:00,96.5,70.3,29.85,NE,56,0.0,3.0,43,0.00,,,0.00,WeatherCatV1.15B25,2013-08-11 00:26:00,
2013-08-10 19:31:00,96.2,70.0,29.85,NNE,13,3.0,4.0,43,0.00,,,0.00,WeatherCatV1.15B25,2013-08-11 00:31:00,
2013-08-10 19:37:00,96.0,70.5,29.85,NE,40,0.0,3.0,44,0.00,,,0.00,WeatherCatV1.15B25,2013-08-11 00:37:00,
2013-08-10 19:42:00,95.8,71.0,29.85,North,0,0.0,0.0,45,0.00,,,0.00,WeatherCatV1.15B25,2013-08-11 00:42:00,
2013-08-10 19:47:00,95.6,70.8,29.86,NNE,32,0.0,3.0,45,0.00,,,0.00,WeatherCatV1.15B25,2013-08-11 00:47:00,
2013-08-10 19:52:00,95.3,71.8,29.86,NNE,23,0.0,1.0,47,0.00,,,0.00,WeatherCatV1.15B25,2013-08-11 00:52:00,
2013-08-10 19:57:00,95.0,71.6,29.86,North,0,0.0,0.0,47,0.00,,,0.00,WeatherCatV1.15B25,2013-08-11 00:57:00,
2013-08-10 20:02:00,94.7,71.3,29.87,ENE,57,0.0,3.0,47,0.00,,,0.00,WeatherCatV1.15B25,2013-08-11 01:02:00,
2013-08-10 20:07:00,94.4,71.6,29.87,North,355,2.0,4.0,48,0.00,,,0.00,WeatherCatV1.15B25,2013-08-11 01:07:00,
2013-08-10 20:12:00,94.0,74.2,29.87,North,0,0.0,2.0,53,0.00,,,0.00,WeatherCatV1.15B25,2013-08-11 01:12:00,
2013-08-10 20:17:00,93.6,72.7,29.87,NNE,22,0.0,0.0,51,0.00,,,0.00,WeatherCatV1.15B25,2013-08-11 01:17:00,
2013-08-10 20:22:00,93.3,71.8,29.87,NNE,22,0.0,0.0,50,0.00,,,0.00,WeatherCatV1.15B25,2013-08-11 01:22:00,
2013-08-10 20:27:00,92.9,71.5,29.87,NNE,20,0.0,0.0,50,0.00,,,0.00,WeatherCatV1.15B25,2013-08-11 01:27:00,
2013-08-10 20:32:00,92.6,71.2,29.88,NNE,13,0.0,0.0,50,0.00,,,0.00,WeatherCatV1.15B25,2013-08-11 01:32:00,
2013-08-10 20:37:00,92.2,71.4,29.88,NE,41,0.0,0.0,51,0.00,,,0.00,WeatherCatV1.15B25,2013-08-11 01:37:00,
2013-08-10 20:42:00,91.9,71.1,29.88,NNE,29,0.0,6.0,51,0.00,,,0.00,WeatherCatV1.15B25,2013-08-11 01:42:00,
2013-08-10 20:47:00,91.6,70.9,29.89,NNE,27,0.0,0.0,51,0.00,,,0.00,WeatherCatV1.15B25,2013-08-11 01:47:00,
2013-08-10 20:52:00,91.4,71.8,29.89,NNE,19,0.0,2.0,53,0.00,,,0.00,WeatherCatV1.15B25,2013-08-11 01:52:00,
2013-08-10 20:57:00,91.1,71.0,29.89,NNE,26,0.0,5.0,52,0.00,,,0.00,WeatherCatV1.15B25,2013-08-11 01:57:00,
2013-08-10 21:02:00,90.9,70.8,29.89,NE,44,0.0,4.0,52,0.00,,,0.00,WeatherCatV1.15B25,2013-08-11 02:02:00,
2013-08-10 21:07:00,90.8,71.3,29.89,NE,44,0.0,2.0,53,0.00,,,0.00,WeatherCatV1.15B25,2013-08-11 02:07:00,
2013-08-10 21:12:00,90.6,71.1,29.89,North,9,0.0,3.0,53,0.00,,,0.00,WeatherCatV1.15B25,2013-08-11 02:12:00,
2013-08-10 21:17:00,90.4,70.3,29.89,NNE,31,0.0,3.0,52,0.00,,,0.00,WeatherCatV1.15B25,2013-08-11 02:17:00,
2013-08-10 21:22:00,90.2,70.2,29.89,NNE,24,0.0,8.0,52,0.00,,,0.00,WeatherCatV1.15B25,2013-08-11 02:22:00,
2013-08-10 21:27:00,90.0,70.0,29.89,NNE,24,0.0,0.0,52,0.00,,,0.00,WeatherCatV1.15B25,2013-08-11 02:27:00,
2013-08-10 21:32:00,89.9,69.9,29.90,NE,34,0.0,0.0,52,0.00,,,0.00,WeatherCatV1.15B25,2013-08-11 02:32:00,
2013-08-10 21:37:00,89.7,69.7,29.90,NE,42,0.0,0.0,52,0.00,,,0.00,WeatherCatV1.15B25,2013-08-11 02:37:00,
2013-08-10 21:42:00,89.6,69.6,29.90,North,355,3.0,6.0,52,0.00,,,0.00,WeatherCatV1.15B25,2013-08-11 02:42:00,
2013-08-10 21:47:00,89.4,70.0,29.90,NNE,30,2.0,4.0,53,0.00,,,0.00,WeatherCatV1.15B25,2013-08-11 02:47:00,
2013-08-10 21:52:00,89.2,69.8,29.90,NE,36,4.0,5.0,53,0.00,,,0.00,WeatherCatV1.15B25,2013-08-11 02:52:00,
2013-08-10 21:57:00,89.0,69.0,29.90,NNE,28,0.0,0.0,52,0.00,,,0.00,WeatherCatV1.15B25,2013-08-11 02:57:00,
2013-08-10 22:02:00,88.9,69.0,29.90,NNE,26,0.0,0.0,52,0.00,,,0.00,WeatherCatV1.15B25,2013-08-11 03:02:00,
2013-08-10 22:07:00,88.8,69.4,29.90,NNE,26,0.0,0.0,53,0.00,,,0.00,WeatherCatV1.15B25,2013-08-11 03:07:00,
2013-08-10 22:12:00,88.6,69.2,29.90,NNE,26,0.0,0.0,53,0.00,,,0.00,WeatherCatV1.15B25,2013-08-11 03:12:00,
2013-08-10 22:17:00,88.4,69.1,29.91,NE,39,0.0,0.0,53,0.00,,,0.00,WeatherCatV1.15B25,2013-08-11 03:17:00,
2013-08-10 22:22:00,88.2,69.4,29.91,NNE,20,0.0,1.0,54,0.00,,,0.00,WeatherCatV1.15B25,2013-08-11 03:22:00,
2013-08-10 22:27:00,87.9,69.7,29.91,NE,38,0.0,3.0,55,0.00,,,0.00,WeatherCatV1.15B25,2013-08-11 03:27:00,
2013-08-10 22:32:00,87.7,69.5,29.91,NE,39,0.0,3.0,55,0.00,,,0.00,WeatherCatV1.15B25,2013-08-11 03:32:00,
2013-08-10 22:37:00,87.5,69.3,29.91,NNE,24,0.0,5.0,55,0.00,,,0.00,WeatherCatV1.15B25,2013-08-11 03:37:00,
2013-08-10 22:42:00,87.4,69.2,29.91,NE,52,0.0,3.0,55,0.00,,,0.00,WeatherCatV1.15B25,2013-08-11 03:42:00,
2013-08-10 22:47:00,87.2,69.6,29.92,ESE,105,0.0,3.0,56,0.00,,,0.00,WeatherCatV1.15B25,2013-08-11 03:47:00,
2013-08-10 22:52:00,87.0,69.4,29.92,NE,34,0.0,3.0,56,0.00,,,0.00,WeatherCatV1.15B25,2013-08-11 03:52:00,
2013-08-10 22:57:00,87.0,69.4,29.92,ESE,115,0.0,4.0,56,0.00,,,0.00,WeatherCatV1.15B25,2013-08-11 03:57:00,
2013-08-10 23:01:00,86.9,69.3,29.93,ENE,61,0.0,0.0,56,0.00,,,0.00,WeatherCatV1.15B25,2013-08-11 04:01:00,
2013-08-10 23:06:00,86.8,69.7,29.93,NE,50,0.0,5.0,57,0.00,,,0.00,WeatherCatV1.15B25,2013-08-11 04:06:00,
2013-08-10 23:11:00,86.8,69.7,29.93,ESE,107,0.0,0.0,57,0.00,,,0.00,WeatherCatV1.15B25,2013-08-11 04:11:00,
2013-08-10 23:16:00,86.7,69.6,29.93,SSE,148,0.0,1.0,57,0.00,,,0.00,WeatherCatV1.15B25,2013-08-11 04:16:00,
2013-08-10 23:21:00,86.6,70.0,29.93,SSE,148,0.0,0.0,58,0.00,,,0.00,WeatherCatV1.15B25,2013-08-11 04:21:00,
2013-08-10 23:26:00,86.5,69.9,29.93,ENE,63,0.0,0.0,58,0.00,,,0.00,WeatherCatV1.15B25,2013-08-11 04:26:00,
2013-08-10 23:31:00,86.3,70.2,29.93,ENE,63,0.0,0.0,59,0.00,,,0.00,WeatherCatV1.15B25,2013-08-11 04:31:00,
2013-08-10 23:36:00,86.2,70.2,29.93,ENE,63,0.0,0.0,59,0.00,,,0.00,WeatherCatV1.15B25,2013-08-11 04:36:00,
2013-08-10 23:41:00,86.0,70.0,29.93,NE,45,0.0,0.0,59,0.00,,,0.00,WeatherCatV1.15B25,2013-08-11 04:41:00,
2013-08-10 23:46:00,85.8,69.8,29.93,NE,45,0.0,0.0,59,0.00,,,0.00,WeatherCatV1.15B25,2013-08-11 04:46:00,
2013-08-10 23:51:00,85.6,69.6,29.93,NE,45,0.0,0.0,59,0.00,,,0.00,WeatherCatV1.15B25,2013-08-11 04:51:00,
2013-08-10 23:56:00,85.4,69.9,29.93,ENE,57,0.0,0.0,60,0.00,,,0.00,WeatherCatV1.15B25,2013-08-11 04:56:00,